Bologna, Italy

6:11 PM CEST on August 20, 2017 (GMT +0200)
Borgo Panigale

Weather History for LIPE - April, 2013

Change the Weather History Date:

Monday, April 1, 2013

  Actual Average Record
Temperature  
Mean Temperature 48 °F -  
Max Temperature 53 °F 64 °F 140 °F (2008)
Min Temperature 44 °F 46 °F 39 °F (2004)
Degree Days  
Heating Degree Days 16    
Moisture  
Dew Point 44 °F    
Average Humidity 84    
Maximum Humidity 100    
Minimum Humidity 67    
Precipitation  
Precipitation 0.00 in 0.09 in - ()
Sea Level Pressure  
Sea Level Pressure 29.66 in    
Wind  
Wind Speed 5 mph ()    
Max Wind Speed 12 mph    
Max Gust Speed -    
Visibility 6.1 miles    
Events Rain    
Averages and records for this station are not official NWS values.
T = Trace of Precipitation, MM = Missing Value Source: Averaged Metar Reports

Daily Weather History Graph

Daily Weather History Graph

Search for Another Location

Airport or City:

Trip Planner

Search our weather history database for the weather conditions in past years. The results will help you decide how hot, cold, wet, or windy it might be!

Date:

Astronomy

Apr. 01, 2013 Rise Set
Actual Time 6:55 AM CEST 7:42 PM CEST
Civil Twilight 6:26 AM CEST 8:11 PM CEST
Nautical Twilight 5:51 AM CEST 8:46 PM CEST
Astronomical Twilight 5:15 AM CEST 9:23 PM CEST
Moon 12:43 AM CEST (4/1) 10:14 AM CEST (4/1)
Length of Visible Light 13h 45m
Length of Day
12h 46m
Waning Gibbous, 70% of the Moon is Illuminated
Apr 1
Waning Gibbous
Apr 3
Last Quarter
Apr 10
New
Apr 18
First Quarter
Apr 25
Full

Hourly Weather History & Observations

Time (CEST) Temp. Windchill Dew Point Humidity Pressure Visibility Wind Dir Wind Speed Gust Speed Precip Events Conditions
12:20 AM 46.4 °F 45.2 °F 42.8 °F 87% 29.62 in 6.2 mi East 3.5 mph - N/A   Scattered Clouds
12:50 AM 46.4 °F - 42.8 °F 87% 29.62 in 6.2 mi Variable 2.3 mph - N/A   Scattered Clouds
1:20 AM 46.4 °F - 42.8 °F 87% 29.62 in 6.2 mi ESE 1.2 mph - N/A   Scattered Clouds
1:50 AM 46.4 °F - 42.8 °F 87% 29.62 in 6.2 mi Calm Calm - N/A   Scattered Clouds
2:20 AM 46.4 °F 45.2 °F 44.6 °F 93% 29.65 in 6.2 mi WNW 3.5 mph - N/A   Scattered Clouds
2:50 AM 46.4 °F - 42.8 °F 87% 29.65 in 6.2 mi NNW 2.3 mph - N/A   Scattered Clouds
3:20 AM 46.4 °F - 42.8 °F 87% 29.65 in 6.2 mi Variable 2.3 mph - N/A   Scattered Clouds
3:50 AM 46.4 °F - 42.8 °F 87% 29.65 in 6.2 mi Variable 2.3 mph - N/A   Scattered Clouds
4:20 AM 46.4 °F - 42.8 °F 87% 29.65 in 6.2 mi Variable 1.2 mph - N/A   Scattered Clouds
4:50 AM 44.6 °F - 44.6 °F 100% 29.65 in 6.2 mi Variable 2.3 mph - N/A   Scattered Clouds
5:20 AM 46.4 °F 45.2 °F 42.8 °F 87% 29.65 in 6.2 mi East 3.5 mph - N/A   Scattered Clouds
5:50 AM 44.6 °F 41.4 °F 42.8 °F 93% 29.65 in 6.2 mi SE 5.8 mph - N/A   Scattered Clouds
6:20 AM 46.4 °F 42.9 °F 41.0 °F 81% 29.65 in 6.2 mi ESE 6.9 mph - N/A   Scattered Clouds
6:50 AM 44.6 °F 40.7 °F 41.0 °F 87% 29.65 in 6.2 mi East 6.9 mph - N/A   Scattered Clouds
7:20 AM 44.6 °F 40.2 °F 41.0 °F 87% 29.65 in 6.2 mi East 8.1 mph - N/A   Light Drizzle
7:50 AM 44.6 °F 41.4 °F 41.0 °F 87% 29.68 in 6.2 mi East 5.8 mph - N/A   Scattered Clouds
8:20 AM 44.6 °F 41.4 °F 41.0 °F 87% 29.68 in 6.2 mi East 5.8 mph - N/A   Mostly Cloudy
8:50 AM 44.6 °F 40.7 °F 41.0 °F 87% 29.68 in 6.2 mi East 6.9 mph - N/A   Mostly Cloudy
9:20 AM 44.6 °F 40.7 °F 41.0 °F 87% 29.68 in 6.2 mi East 6.9 mph - N/A   Mostly Cloudy
9:50 AM 46.4 °F 42.9 °F 42.8 °F 87% 29.68 in 6.2 mi East 6.9 mph - N/A   Mostly Cloudy
10:20 AM 46.4 °F 42.4 °F 41.0 °F 81% 29.68 in 6.2 mi East 8.1 mph - N/A   Mostly Cloudy
10:50 AM 48.2 °F - 42.8 °F 82% 29.68 in 6.2 mi East 6.9 mph - N/A   Mostly Cloudy
11:20 AM 48.2 °F - 42.8 °F 82% 29.71 in 6.2 mi East 8.1 mph - N/A   Mostly Cloudy
11:50 AM 50.0 °F - 44.6 °F 82% 29.71 in 6.2 mi ENE 8.1 mph - N/A   Mostly Cloudy
12:20 PM 51.8 °F - 42.8 °F 71% 29.71 in 6.2 mi ENE 8.1 mph - N/A   Mostly Cloudy
12:50 PM 51.8 °F - 44.6 °F 76% 29.68 in 6.2 mi ENE 8.1 mph - N/A   Mostly Cloudy
1:20 PM 51.8 °F - 42.8 °F 71% 29.68 in 6.2 mi ENE 10.4 mph - N/A   Mostly Cloudy
1:50 PM 51.8 °F - 42.8 °F 71% 29.68 in 6.2 mi NE 9.2 mph - N/A   Mostly Cloudy
2:20 PM 51.8 °F - 42.8 °F 71% 29.68 in 6.2 mi NE 9.2 mph - N/A   Mostly Cloudy
2:50 PM 51.8 °F - 44.6 °F 76% 29.68 in 6.2 mi ENE 8.1 mph - N/A   Mostly Cloudy
3:20 PM 53.6 °F - 44.6 °F 72% 29.68 in 6.2 mi NE 8.1 mph - N/A   Mostly Cloudy
3:50 PM 53.6 °F - 42.8 °F 67% 29.68 in 6.2 mi East 8.1 mph - N/A   Mostly Cloudy
4:20 PM 53.6 °F - 44.6 °F 72% 29.68 in 6.2 mi ENE 6.9 mph - N/A   Mostly Cloudy
4:50 PM 53.6 °F - 44.6 °F 72% 29.65 in 6.2 mi ENE 9.2 mph - N/A   Mostly Cloudy
5:20 PM 53.6 °F - 44.6 °F 72% 29.65 in 6.2 mi ENE 10.4 mph - N/A   Mostly Cloudy
5:50 PM 51.8 °F - 44.6 °F 76% 29.65 in 6.2 mi ENE 10.4 mph - N/A   Mostly Cloudy
6:20 PM 51.8 °F - 46.4 °F 82% 29.65 in 6.2 mi East 9.2 mph - N/A   Mostly Cloudy
6:50 PM 51.8 °F - 46.4 °F 82% 29.65 in 6.2 mi East 10.4 mph - N/A   Mostly Cloudy
7:20 PM 50.0 °F - 44.6 °F 82% 29.65 in 6.2 mi East 9.2 mph - N/A   Mostly Cloudy
7:50 PM 50.0 °F - 44.6 °F 82% 29.65 in 6.2 mi ENE 8.1 mph - N/A   Mostly Cloudy
8:20 PM 50.0 °F - 44.6 °F 82% 29.65 in 6.2 mi ENE 9.2 mph - N/A   Mostly Cloudy
8:50 PM 50.0 °F - 46.4 °F 87% 29.65 in 6.2 mi ENE 9.2 mph - N/A Rain Light Rain
9:20 PM 48.2 °F - 46.4 °F 93% 29.65 in 6.2 mi ENE 8.1 mph - N/A Rain Light Rain
9:50 PM 48.2 °F - 46.4 °F 93% 29.65 in 6.2 mi ENE 6.9 mph - N/A Rain Light Rain
10:20 PM 48.2 °F - 46.4 °F 93% 29.65 in 6.2 mi ENE 8.1 mph - N/A Rain Light Rain
10:50 PM 48.2 °F - 48.2 °F 100% 29.62 in 4.3 mi NE 10.4 mph - N/A Rain Light Rain
11:20 PM 48.2 °F - 46.4 °F 93% 29.62 in 4.3 mi NE 11.5 mph - N/A Rain Light Rain
11:50 PM 46.4 °F 41.5 °F 46.4 °F 100% 29.59 in 3.7 mi NE 10.4 mph - N/A Rain Rain